Tracking 29777 objects as of 6-Oct-2024
HD Live streaming from Space Station
objects crossing your sky now

STARLINK-31235

Track STARLINK-31235 now!
10-day predictions
STARLINK-31235 is classified as:


NORAD ID: 59038
Int'l Code: 2024-038R
Perigee: 494.3 km
Apogee: 496.1 km
Inclination: 43.0 °
Period: 94.4 minutes
Semi major axis: 6866 km
RCS: Unknown
Launch date: February 25, 2024
Source: United States (US)
Launch site: AIR FORCE EASTERN TEST RANGE (AFETR)
Your satellite tracking list
Your tracking list is empty




NASA's NSSDC Master Catalog

Two Line Element Set (TLE):
1 59038U 24038R   24280.48348109 -.00002029  00000-0 -67748-4 0  9996
2 59038  43.0029  73.9330 0001293 283.4763  76.5944 15.25909534 35419
Source of the keplerian elements: AFSPC